Atlanta, GA

9:28 PM EST on December 08, 2019 (GMT -0500)
The Hartsfield Atlanta International

Weather History for KATL - November, 2019

Change the Weather History Date:

Saturday, November 16, 2019

  Actual Average Record
Temperature  
Mean Temperature 52 °F 54 °F  
Max Temperature 65 °F 64 °F 82 °F (1958)
Min Temperature 40 °F 44 °F 19 °F (1940)
Degree Days  
Heating Degree Days 12 11  
Month to date heating degree days 241 146  
Since 1 July heating degree days 293 275  
Cooling Degree Days 0 0  
Month to date cooling degree days 0 11  
Year to date cooling degree days 2643 1883  
Growing Degree Days 2 (Base 50)    
Moisture  
Dew Point 36 °F    
Average Humidity 57    
Maximum Humidity 82    
Minimum Humidity 36    
Precipitation  
Precipitation T in 0.15 in 3.23 in (1921)
Month to date precipitation 1.87 2.04  
Year to date precipitation 37.79 43.75  
Snow  
Snow 0.00 in 0.00 in 0.00 in (2001)
Month to date snowfall 0.0 0.0  
Since 1 July snowfall 0.0 0.0  
Since 1 September snowfall 0.0 0.0  
Snow Depth 0.00 in    
Sea Level Pressure  
Sea Level Pressure 30.06 in    
Wind  
Wind Speed 8 mph ()    
Max Wind Speed 16 mph    
Max Gust Speed 22 mph    
Visibility 10.0 miles    
Events      
T = Trace of Precipitation, MM = Missing Value Source: Averaged Metar Reports

Daily Weather History Graph

Daily Weather History Graph

Search for Another Location

Airport or City:

Astronomy

Nov. 16, 2019 Rise Set
Actual Time 7:10 AM EST 5:34 PM EST
Civil Twilight 6:43 AM EST 6:00 PM EST
Nautical Twilight 6:13 AM EST 6:30 PM EST
Astronomical Twilight 5:44 AM EST 7:00 PM EST
Moon 9:11 PM EST (11/16) 10:58 AM EST (11/16)
Length of Visible Light 11h 17m
Length of Day
10h 24m
Waning Gibbous, 82% of the Moon is Illuminated
Nov 16
Waning Gibbous
Nov 19
Last Quarter
Nov 26
New
Dec 4
First Quarter
Dec 12
Full

Hourly Weather History & Observations

Time (EST) Temp. Windchill Dew Point Humidity Pressure Visibility Wind Dir Wind Speed Gust Speed Precip Events Conditions
12:52 AM 45.0 °F 40.1 °F 39.9 °F 82% 30.06 in 10.0 mi NW 9.2 mph - 0.00 in   Mostly Cloudy
1:52 AM 44.1 °F 38.1 °F 37.9 °F 79% 30.05 in 10.0 mi NNW 11.5 mph - N/A   Mostly Cloudy
3:52 AM 42.1 °F 37.1 °F 35.1 °F 76% 30.06 in 10.0 mi NW 8.1 mph - N/A   Mostly Cloudy
4:52 AM 41.0 °F 35.8 °F 35.1 °F 79% 30.07 in 10.0 mi NW 8.1 mph - N/A   Mostly Cloudy
6:52 AM 41.0 °F 35.8 °F 34.0 °F 76% 30.09 in 10.0 mi NNW 8.1 mph - N/A   Mostly Cloudy
7:52 AM 41.0 °F 33.9 °F 34.0 °F 76% 30.10 in 10.0 mi NW 12.7 mph - N/A   Mostly Cloudy
8:52 AM 43.0 °F 36.8 °F 35.1 °F 74% 30.10 in 10.0 mi NNW 11.5 mph - N/A   Mostly Cloudy
9:52 AM 46.0 °F 42.5 °F 35.1 °F 66% 30.11 in 10.0 mi NW 6.9 mph - N/A   Mostly Cloudy
10:52 AM 51.1 °F - 37.0 °F 59% 30.10 in 10.0 mi NNW 9.2 mph - N/A   Scattered Clouds
11:52 AM 55.9 °F - 37.9 °F 51% 30.07 in 10.0 mi NE 8.1 mph - N/A   Scattered Clouds
12:52 PM 62.1 °F - 36.0 °F 38% 30.04 in 10.0 mi NNE 11.5 mph - N/A   Scattered Clouds
1:52 PM 64.0 °F - 37.9 °F 38% 30.02 in 10.0 mi NNE 10.4 mph - N/A   Scattered Clouds
2:52 PM 64.0 °F - 39.9 °F 41% 30.01 in 10.0 mi NE 9.2 mph - N/A   Scattered Clouds
3:52 PM 64.0 °F - 39.0 °F 40% 30.02 in 10.0 mi NNW 11.5 mph - N/A   Mostly Cloudy
4:52 PM 62.1 °F - 37.9 °F 41% 30.03 in 10.0 mi NNW 10.4 mph - N/A   Scattered Clouds
5:52 PM 57.0 °F - 37.9 °F 49% 30.04 in 10.0 mi NNW 8.1 mph - N/A   Scattered Clouds
6:52 PM 57.0 °F - 36.0 °F 45% 30.05 in 10.0 mi NNW 10.4 mph - N/A   Mostly Cloudy
7:52 PM 55.0 °F - 35.1 °F 47% 30.07 in 10.0 mi NNW 8.1 mph - N/A   Mostly Cloudy
8:52 PM 54.0 °F - 35.1 °F 49% 30.07 in 10.0 mi NNW 4.6 mph - N/A   Overcast
9:52 PM 54.0 °F - 35.1 °F 49% 30.08 in 10.0 mi North 5.8 mph - N/A   Mostly Cloudy
10:52 PM 52.0 °F - 33.1 °F 49% 30.07 in 10.0 mi NNE 5.8 mph - N/A   Scattered Clouds
11:52 PM 50.0 °F - 34.0 °F 54% 30.07 in 10.0 mi NE 5.8 mph - N/A   Partly Cloudy